Location: Unspecified
(29.9680°N, 0.0000°E)
Time: 04:10:13
(UTC+00:00)

A-11 Canister half - Pass Details

Date: 21 June 2019
Orbit: 1526 x 1683 km, 47.3° (Epoch: 19 July)

Event Time Altitude Azimuth Distance (km) Brightness Sun altitude
Rises 11:26:49 0° 309° (NW) 4,677 11.4 79.8°
Reaches altitude 10° 11:29:50 10° 309° (NW) 3,697 11.0 80.3°
Maximum altitude 11:39:12 87° 222° (SW) 1,551 11.7 81.8°
Drops below altitude 10° 11:48:46 10° 134° (SE) 3,775 11.3 82.9°
Sets 11:51:52 0° 134° (SE) 4,779 11.7 83.1°
